User: anonymous   Login
Location: Harbor Island
(32.3990°N, 80.4435°W)
Time: 07:31:25
(UTC-05:00)
Language:

Cosmos 1455 - Orbit

View from above orbital plane
View from above orbital plane
View from above satellite
View from above satellite

Ground track
Ground track

The orbit data is extracted from the following two-line orbital elements,

1 14032U 83037A   15058.89637265  .00003888  00000-0  21456-3 0  9994
2 14032 082.5179 195.3293 0018239 315.2350 162.5194 15.13541349734095
Epoch (UTC): 27 February 2015 21:30:46
Eccentricity: 0.0018239
inclination: 82.5179°
perigee height: 513 km
apogee height: 538 km
right ascension of ascending node: 195.3293°
argument of perigee: 315.2350°
revolutions per day: 15.13541349
mean anomaly at epoch: 162.5194°
orbit number at epoch: 73409

The dashed part of the orbit path shows where the satellite is in the earth's shadow,  

DLR